Theta_e
346 346 348 347 346 347 347 348 349 348 347 349 350 350 351 350 350 349 350 349 348 349 348 348 347 348 348 348 348 347 347 346 344 344 343 343 342 342 341 341 342 343 343 344 344 345 346 346 345 346 345 344 343 344 344 343 342 341 341 340 341 341 341 342 342 341 340 340 342 342 343 343 344 343 344 344 344 343 343 344 345 343 345 344 347
343 347 347 349 346 346 347 347 348 347 348 348 348 349 350 350 350 349 349 349 348 348 348 348 348 348 348 347 347 347 346 345 344 343 342 341 341 341 342 340 341 341 342 342 342 343 343 345 344 345 344 344 343 342 343 342 341 340 339 339 340 340 340 340 341 342 341 341 340 339 339 341 341 341 342 343 343 342 340 342 343 342 342 346 346
347 346 347 349 347 346 346 347 347 347 347 348 349 349 349 349 349 349 349 350 348 348 348 348 348 348 347 347 347 347 346 344 342 343 342 340 340 340 340 340 340 340 340 340 340 341 342 343 344 345 344 343 343 342 341 340 340 339 339 339 339 339 339 340 341 341 342 343 341 339 339 339 339 340 341 340 341 340 339 340 341 341 339 345 345
344 346 347 347 344 346 347 346 348 346 348 349 349 349 349 350 350 349 349 349 349 348 347 347 347 347 346 347 347 347 345 342 342 342 341 340 340 339 339 339 339 339 339 341 341 342 345 346 345 345 343 342 342 340 339 338 336 338 339 338 338 339 339 339 340 342 341 341 339 336 334 332 334 338 338 339 340 340 337 339 339 340 341 343 344
345 347 347 347 349 347 347 347 348 347 347 348 349 348 348 349 349 349 349 349 348 347 348 347 347 346 346 347 346 346 343 341 341 341 340 340 339 339 339 339 339 338 337 340 343 344 345 344 345 345 343 342 341 340 338 337 338 337 338 338 338 338 339 340 338 341 340 338 337 335 331 332 333 336 338 339 338 338 338 337 338 338 339 339 342
345 346 348 347 347 349 346 348 348 349 349 349 349 349 348 349 349 349 348 348 347 348 347 347 346 346 346 346 345 344 342 340 341 341 340 339 339 338 338 338 338 338 338 339 343 346 346 345 345 344 342 340 339 338 336 337 337 337 337 337 338 339 339 340 340 340 340 337 335 332 331 331 331 332 338 338 338 336 337 338 338 338 337 339 339
345 347 347 348 347 347 345 348 348 349 349 349 349 348 349 349 350 349 348 348 347 348 347 346 346 346 346 345 345 343 340 340 340 340 339 339 338 337 338 338 338 338 338 340 343 344 344 343 343 343 341 340 339 339 336 336 336 337 337 337 338 338 340 340 338 337 335 333 331 330 330 330 331 332 336 337 338 337 336 337 338 338 338 337 337
346 347 348 348 348 345 344 348 349 349 349 349 348 349 348 349 348 348 348 348 347 347 347 346 346 345 345 345 344 342 339 339 339 340 339 338 337 337 337 337 338 339 338 338 339 339 342 342 340 340 341 341 339 338 337 336 336 337 337 337 337 338 339 338 336 335 335 330 330 330 330 330 330 332 337 337 337 336 336 336 336 337 337 336 335
345 347 348 348 350 343 345 347 349 349 349 348 348 348 348 348 348 347 348 347 347 347 347 346 345 345 345 345 344 341 339 338 338 339 339 338 337 336 336 337 338 340 340 342 343 343 342 341 342 342 341 340 339 338 335 335 336 336 336 336 336 337 339 337 335 333 330 330 330 330 329 330 330 330 336 336 336 336 336 334 334 336 336 335 334
345 346 348 348 350 341 346 346 349 349 348 348 348 348 348 348 347 347 347 347 347 347 346 346 345 345 345 345 344 340 339 339 339 338 338 338 337 336 336 337 338 339 342 344 345 344 344 343 342 340 341 339 338 336 335 335 335 335 335 335 336 337 340 336 333 331 329 329 330 330 331 333 330 330 334 337 336 337 337 335 335 335 334 335 334
345 346 348 349 351 341 347 348 350 349 348 348 347 347 347 347 347 347 347 347 347 347 347 346 346 345 345 344 343 339 337 338 338 338 338 337 337 336 335 337 338 338 340 341 341 340 340 340 340 339 339 338 336 335 335 335 335 335 335 334 335 336 340 336 331 329 330 329 329 330 332 335 330 331 338 338 337 337 336 336 336 335 334 335 335
344 346 348 349 345 340 346 348 348 348 348 347 347 347 347 346 346 346 347 346 346 347 347 346 345 345 345 344 342 339 336 336 338 338 338 337 336 336 335 335 338 338 338 339 339 340 341 341 340 339 338 337 336 335 334 334 334 333 333 333 333 336 336 336 334 335 335 334 333 332 332 333 333 334 338 339 340 339 336 336 336 336 336 336 336
345 345 348 350 349 338 342 346 347 349 348 347 347 347 346 346 346 346 346 346 347 347 346 345 344 344 344 344 343 338 335 335 337 337 337 337 336 335 335 334 337 336 337 337 338 338 339 339 338 337 337 335 334 334 333 333 333 333 332 332 333 335 333 332 333 334 334 334 334 335 335 335 335 337 338 338 340 339 338 338 337 337 337 338 338
344 345 346 349 348 341 336 340 344 348 348 348 347 346 346 346 345 345 346 346 347 346 345 345 344 343 344 343 342 338 335 335 336 337 337 337 336 335 335 334 334 335 335 335 335 334 334 335 335 335 335 334 333 333 333 333 332 332 332 332 333 334 330 329 330 331 333 333 334 334 334 334 335 337 338 339 339 339 338 338 338 338 337 337 337
344 348 346 349 347 347 337 336 341 341 345 347 348 347 346 346 346 345 346 346 346 346 346 345 344 343 343 343 342 339 336 336 337 337 337 336 337 336 335 335 334 334 333 334 333 332 331 333 334 334 334 333 332 332 332 332 331 331 331 331 332 330 328 327 328 327 330 332 331 332 333 334 336 337 338 339 340 339 338 338 337 337 336 336 336
346 346 347 347 348 347 347 338 334 335 340 343 344 346 347 346 347 346 346 346 346 345 345 345 344 343 342 343 342 339 336 335 336 336 336 335 335 335 335 335 335 334 334 332 332 332 332 333 333 332 332 332 332 331 331 331 330 330 330 330 330 328 326 326 327 327 326 327 328 329 331 332 335 336 336 336 337 336 337 337 338 337 336 336 336
345 346 347 346 348 346 346 346 339 329 330 333 336 339 344 347 347 347 346 346 345 345 345 344 344 343 342 342 341 338 336 335 335 335 334 335 335 335 334 334 334 333 333 331 331 331 331 331 331 331 330 331 330 330 330 329 329 328 329 329 329 327 324 324 326 325 325 327 327 326 327 329 332 334 335 335 336 336 336 336 335 336 335 334 334
346 346 345 345 346 346 345 346 346 345 347 337 330 334 339 344 345 345 345 345 345 346 345 345 343 343 342 341 339 338 336 334 334 333 332 332 334 335 334 334 333 332 329 328 328 328 329 330 330 330 330 330 329 329 329 328 327 327 327 328 327 326 324 323 325 324 325 326 325 326 326 330 331 331 332 333 334 334 334 334 335 334 334 333 332
342 343 342 343 343 345 344 345 346 347 347 345 346 341 330 337 342 342 343 344 344 343 344 342 341 342 340 338 336 334 332 332 333 334 334 332 331 331 333 332 332 329 326 325 326 327 328 328 329 329 328 328 328 327 327 326 325 325 326 325 323 322 321 323 324 324 324 323 325 326 327 331 331 331 332 331 330 330 331 332 332 332 331 331 330
338 340 341 340 341 343 344 344 345 346 346 345 344 346 332 328 337 339 340 341 341 341 339 338 336 335 334 332 330 331 328 329 325 330 329 332 329 329 331 330 330 328 326 325 326 326 327 328 328 328 327 326 326 325 324 324 323 323 325 323 321 320 326 326 325 325 325 326 328 329 331 331 332 332 333 333 332 330 329 329 329 331 331 331 330
336 336 338 338 339 341 341 342 343 344 345 345 344 343 339 329 332 330 333 337 337 336 335 328 326 325 328 325 327 331 331 331 331 330 324 329 322 324 328 329 329 328 326 326 325 326 326 327 327 326 324 322 319 319 320 320 320 321 321 320 319 323 324 324 325 326 327 327 328 328 330 330 331 334 332 333 332 332 332 332 331 330 331 331 331
335 336 333 337 337 340 341 341 341 343 344 344 344 343 342 337 344 343 345 338 331 327 335 343 336 341 326 332 337 332 330 331 331 329 329 328 325 321 324 325 326 325 325 325 325 325 325 325 324 323 322 320 319 317 317 317 317 319 318 317 321 322 322 323 322 321 323 326 327 328 329 330 330 332 332 332 332 331 331 331 331 330 330 330 329
333 334 331 332 335 336 339 340 341 342 343 343 343 343 343 341 342 342 343 336 338 340 342 342 342 341 340 339 337 337 335 331 332 330 330 322 325 321 323 324 324 324 323 322 323 323 322 322 320 319 319 320 317 318 317 317 317 314 314 317 319 320 321 321 319 318 318 321 326 327 328 329 333 332 332 333 331 331 330 330 330 330 329 329 329
332 333 332 332 333 334 335 339 341 340 341 342 343 343 343 342 341 342 343 342 342 342 342 341 341 341 340 339 341 339 337 333 325 324 324 326 324 320 321 322 323 322 321 321 321 320 319 319 318 319 320 316 315 314 313 313 313 314 315 315 315 317 318 318 317 316 316 317 320 326 328 329 331 331 331 331 331 330 330 329 328 327 326 327 327
332 334 335 331 331 333 334 335 338 340 340 340 341 341 342 343 343 342 344 342 340 341 341 341 341 340 340 341 340 341 338 333 330 329 329 326 323 323 323 322 320 319 317 317 315 316 316 317 317 316 314 313 312 311 311 310 310 311 311 312 312 314 315 316 316 315 315 314 315 322 326 327 329 331 330 331 330 328 329 328 327 326 326 327 327
332 331 334 333 334 334 334 335 336 338 339 340 340 340 340 340 342 342 341 341 341 341 340 340 341 340 341 342 340 340 336 332 330 329 329 327 323 322 322 321 319 317 315 313 314 317 318 317 316 314 312 311 310 309 308 308 308 308 308 310 310 310 312 313 314 314 313 313 312 318 321 325 327 329 329 328 327 327 328 328 328 327 325 326 326
331 331 332 331 333 331 332 333 334 336 338 338 338 339 340 340 341 343 342 340 340 340 340 340 340 342 343 339 338 338 337 331 328 329 330 328 325 324 321 320 319 317 315 315 317 319 317 315 313 311 310 309 308 308 307 306 307 306 306 307 308 308 308 310 312 312 311 311 310 314 319 322 324 325 326 327 326 326 325 325 327 327 326 326 325
329 330 332 331 330 330 331 331 332 334 336 337 336 337 339 340 339 341 342 340 341 341 340 340 340 339 339 338 337 338 335 333 332 332 330 330 329 326 322 320 320 319 319 319 318 317 315 313 312 310 309 308 306 305 304 304 304 305 305 305 305 305 306 307 309 310 309 309 308 309 316 318 319 322 323 323 325 325 324 324 326 326 325 325 323
328 329 331 330 328 329 330 330 332 332 335 336 335 335 336 338 339 340 340 338 340 340 339 341 339 339 340 341 340 338 338 333 332 332 332 330 330 326 321 320 321 320 320 319 318 316 313 311 310 309 308 306 305 304 303 302 302 302 302 302 302 302 303 303 305 306 308 307 306 306 311 316 316 318 319 320 322 323 324 324 324 324 325 323 320
329 329 328 328 329 329 328 330 332 332 333 334 334 335 334 335 336 338 340 339 340 341 341 340 341 340 340 338 340 339 338 335 333 332 331 331 329 326 323 322 321 321 321 318 317 314 311 310 309 308 307 305 303 303 302 301 300 300 300 300 300 299 300 300 300 301 303 304 305 304 306 311 314 315 316 318 319 320 320 321 322 323 322 321 320
329 330 329 329 329 328 328 329 329 329 331 331 332 332 334 333 334 337 339 338 340 339 339 340 339 340 341 339 338 339 336 336 334 333 331 330 328 326 325 325 324 324 324 319 318 312 311 310 309 306 305 303 302 302 301 300 300 299 299 299 298 298 298 299 298 298 298 299 301 302 303 305 309 312 313 315 316 316 317 318 319 320 320 320 319
326 327 329 330 328 325 326 327 326 327 327 328 330 330 330 332 333 335 336 338 339 339 339 338 337 339 339 340 339 339 337 337 335 333 331 329 327 325 324 323 322 322 322 318 313 311 310 308 308 306 304 303 301 300 300 299 298 298 299 298 298 297 297 297 298 298 297 297 297 298 299 301 304 307 310 312 313 314 315 315 316 316 317 318 318
328 329 329 328 326 325 326 326 326 325 325 326 327 328 329 329 331 332 334 336 336 335 335 336 337 338 338 338 338 339 337 336 334 333 329 329 325 323 322 321 320 319 317 314 312 309 307 304 303 303 302 302 300 299 301 298 298 298 297 297 297 297 297 297 297 297 297 297 296 296 296 297 298 300 302 306 309 311 312 313 313 314 314 314 316
327 327 327 325 324 325 324 324 323 323 323 324 325 326 328 329 331 331 332 334 334 333 332 334 335 336 337 337 336 337 336 335 334 332 330 328 324 322 321 320 319 318 316 313 310 309 306 303 303 301 301 299 298 298 297 297 297 297 296 297 296 296 296 296 295 295 296 295 296 296 295 295 294 294 296 299 303 307 309 311 311 312 312 313 313
324 323 324 323 323 321 321 320 320 321 320 321 322 323 326 328 330 331 331 332 332 332 332 332 332 333 334 335 336 336 335 336 335 331 329 327 323 322 320 319 319 317 314 311 309 308 305 302 302 300 300 298 297 297 296 296 295 295 295 295 295 295 295 295 295 295 294 295 294 295 295 295 294 293 293 292 295 299 304 307 309 310 310 310 311
321 321 321 321 321 319 319 319 319 319 320 320 321 322 323 326 328 326 329 330 330 329 330 330 330 331 331 332 333 333 333 334 333 332 328 326 324 321 320 319 317 314 312 311 310 308 307 304 303 301 298 296 296 295 296 295 295 294 295 295 294 294 294 294 294 294 294 293 293 294 294 294 294 293 294 291 291 294 297 300 304 306 307 308 309
320 320 319 319 319 318 318 318 318 318 319 320 322 322 323 324 326 325 325 325 328 328 326 327 326 326 328 330 331 331 332 332 331 330 328 325 323 321 320 318 315 312 311 310 310 308 304 303 301 301 298 296 295 294 295 295 295 294 294 294 295 294 293 293 293 293 295 293 293 293 293 294 294 296 293 293 292 291 293 295 297 299 302 305 307
319 320 320 319 318 318 318 317 318 319 319 320 319 319 321 322 323 323 321 320 322 324 324 322 322 322 324 325 326 329 330 332 331 329 326 324 322 319 318 316 314 312 311 309 308 307 306 303 299 298 297 295 293 293 292 293 294 294 293 293 293 293 293 293 293 293 293 292 292 292 292 293 293 293 292 292 292 291 291 292 293 294 296 300 304
317 318 319 319 318 318 317 317 318 318 318 318 317 318 318 319 321 318 316 317 316 317 318 319 317 319 320 320 320 323 326 329 328 327 325 323 321 318 316 315 314 312 310 308 306 305 302 300 297 295 296 295 293 293 292 293 293 292 292 291 292 292 293 293 293 292 292 292 291 292 293 291 292 292 292 291 291 291 290 290 290 290 290 295 298
316 317 317 317 317 317 317 316 316 317 317 317 316 314 314 315 316 314 314 313 312 312 313 314 314 315 316 318 318 319 321 323 324 324 320 317 315 314 313 314 313 311 309 307 305 302 300 298 296 294 293 293 294 293 293 292 291 291 291 291 291 291 291 292 292 292 292 292 291 291 290 290 290 291 291 291 291 290 290 290 290 289 290 291 294
315 315 315 315 315 315 315 314 315 315 315 314 313 312 313 314 315 313 313 311 310 310 310 310 311 312 313 314 316 316 316 317 318 318 317 314 313 313 313 312 312 310 308 306 304 302 299 297 295 294 293 291 292 293 293 292 289 288 289 289 289 290 291 290 290 291 291 291 291 290 290 290 290 290 290 291 290 290 289 289 289 289 289 289 289
313 314 314 314 315 315 314 314 314 314 314 314 313 313 314 314 315 315 316 310 307 308 308 308 309 309 310 311 312 313 314 314 314 315 314 314 311 311 311 311 310 309 308 307 305 300 299 295 294 292 293 291 290 292 292 292 289 287 285 286 287 288 289 289 289 289 290 291 291 291 291 290 290 290 290 289 289 289 289 288 288 288 288 288 288
313 313 314 314 314 314 314 314 313 313 313 313 313 313 314 316 317 316 316 310 307 306 308 308 308 307 307 308 308 310 310 309 310 311 311 311 311 310 310 310 310 309 307 304 302 298 296 295 294 292 291 293 292 293 293 295 289 289 289 286 284 284 286 287 288 288 289 289 290 290 290 290 290 290 290 289 289 288 288 288 288 287 287 287 287
312 312 313 313 313 313 314 313 313 312 312 313 313 314 315 313 308 311 311 310 306 302 303 303 304 305 304 304 304 307 308 307 308 309 309 310 311 311 311 310 310 309 306 302 299 297 295 294 294 294 294 291 292 292 295 300 293 290 286 289 286 286 281 283 284 287 289 289 289 289 290 290 290 290 289 288 288 288 288 287 287 287 286 286 286
311 312 313 313 313 313 313 313 312 311 312 312 312 313 307 306 304 303 303 302 302 303 302 301 302 303 302 302 302 302 304 306 307 308 308 308 310 311 310 310 309 307 305 302 299 297 296 295 295 294 295 293 292 293 296 299 295 296 294 288 286 286 286 284 284 284 287 287 288 289 290 289 289 289 289 288 288 288 287 287 286 286 286 286 286
311 313 313 314 313 313 313 313 312 311 311 311 310 308 309 306 303 302 301 301 300 299 301 301 300 300 301 303 301 300 301 302 303 305 306 307 308 309 310 309 308 307 305 302 300 298 297 296 296 296 296 297 295 295 295 297 298 297 298 298 298 291 287 285 285 281 287 288 288 288 289 289 289 289 289 288 287 287 287 286 286 286 286 285 285
311 313 314 313 313 313 313 313 312 311 311 311 308 307 307 306 305 305 305 304 303 302 304 304 303 303 303 301 300 298 299 300 300 302 303 305 307 309 309 309 307 305 305 303 301 299 298 298 298 298 298 299 298 295 294 294 296 296 298 299 297 299 291 286 285 284 281 284 287 287 287 289 289 288 288 288 288 287 287 287 286 285 285 285 285
311 313 313 313 312 312 312 312 311 310 310 310 307 307 306 306 307 307 307 306 307 305 304 303 302 301 299 298 298 297 296 297 298 298 300 301 304 306 307 308 307 306 305 304 302 300 300 300 300 300 300 300 299 297 296 295 293 294 296 296 294 296 292 294 291 286 284 281 283 287 288 287 288 288 287 287 287 287 286 286 286 285 285 285 285
311 312 312 312 312 312 311 312 310 309 309 308 306 306 306 306 307 309 308 309 310 309 305 302 299 297 298 296 295 295 295 295 295 297 298 300 302 304 305 306 306 306 305 306 304 302 301 301 300 300 300 300 300 301 297 295 295 294 293 294 295 293 293 298 292 292 286 283 282 282 283 287 287 286 286 287 287 286 286 285 285 285 284 284 285
311 313 312 312 311 311 310 310 309 309 307 306 305 305 305 305 306 308 309 309 305 302 302 299 297 295 296 294 294 294 293 294 294 295 297 297 300 303 304 306 307 307 305 307 305 303 302 302 301 301 302 301 301 302 298 296 297 295 295 294 293 292 292 292 292 291 289 288 283 282 283 282 281 284 286 286 286 286 286 285 285 285 284 284 284
311 311 311 310 310 310 310 309 309 309 306 305 305 304 305 305 306 308 308 308 305 301 299 297 296 295 294 292 292 292 294 293 292 293 296 298 297 299 301 304 306 305 305 306 304 304 304 303 303 304 302 302 302 301 299 298 297 294 295 293 292 291 289 288 289 290 289 286 284 284 284 284 284 282 285 287 286 286 286 285 284 284 284 284 283
Wind_Speed
6 7 8 7 4 3 2 4 6 8 8 8 9 11 11 12 11 11 11 13 13 14 13 13 13 14 14 15 15 16 16 16 16 16 16 16 15 14 14 13 12 13 14 14 14 15 16 18 18 18 20 19 20 20 20 20 21 20 19 19 19 20 19 16 14 19 21 23 24 24 23 22 23 24 23 23 22 21 20 20 17 15 13 14 22
10 7 7 8 5 3 2 5 7 6 8 8 9 10 10 11 11 11 11 12 13 13 13 13 13 14 14 14 15 16 16 16 16 16 16 16 15 15 14 13 12 12 14 14 14 15 16 17 18 18 19 19 20 19 19 20 20 20 20 19 19 18 15 14 13 11 15 18 22 23 23 23 24 23 23 24 23 22 20 21 20 14 13 21 22
9 9 8 9 5 3 1 5 8 8 9 8 8 8 9 10 10 11 11 11 12 12 13 13 13 14 14 15 15 16 17 16 16 16 17 16 16 15 14 13 12 12 14 14 15 15 15 16 18 19 19 19 19 19 19 20 19 20 20 19 18 16 15 13 12 10 8 11 14 17 19 23 23 24 24 24 23 22 21 20 21 18 15 24 22
10 8 8 8 4 3 4 7 8 8 6 9 9 8 9 10 9 11 11 11 12 12 12 12 13 14 14 15 15 16 16 16 16 16 16 16 15 15 14 14 13 13 14 15 15 16 18 19 19 20 20 19 19 19 20 19 19 19 19 17 16 15 13 12 10 8 11 12 14 15 12 14 18 24 24 22 24 23 21 21 22 22 22 22 25
9 8 8 8 8 5 3 7 10 9 8 9 9 9 8 10 9 10 11 12 13 12 12 12 12 13 13 15 16 16 16 16 16 16 16 15 14 15 15 14 13 13 14 15 16 16 16 18 20 21 20 19 19 19 19 19 19 19 18 17 16 15 13 10 8 6 12 14 15 14 13 15 14 22 22 24 24 22 22 21 21 21 21 23 25
8 8 8 8 8 8 3 6 8 10 10 10 10 10 9 10 9 10 10 11 11 12 12 12 13 13 14 15 16 15 15 16 16 16 16 16 14 15 15 14 14 14 14 15 17 20 19 19 21 20 19 19 19 19 18 18 18 18 17 16 16 14 13 10 8 5 6 12 15 11 13 14 14 14 22 22 23 23 24 24 23 21 21 22 22
9 7 8 8 9 7 4 4 9 10 10 10 9 9 10 9 9 10 11 11 10 11 12 13 13 13 14 15 15 15 15 16 16 17 17 16 14 14 14 14 14 14 15 15 17 18 18 19 20 20 19 18 19 18 17 17 18 17 16 15 14 13 11 9 12 14 15 12 11 12 11 15 14 11 23 21 21 24 25 25 24 23 23 22 22
8 6 7 7 7 8 5 5 8 10 10 9 10 10 10 10 10 11 11 10 11 11 11 12 13 13 14 15 15 15 16 16 17 17 16 16 14 13 14 14 15 14 15 15 15 16 18 19 18 18 19 19 19 19 17 17 17 16 15 15 14 14 11 8 15 17 15 12 12 11 12 13 15 12 21 23 23 23 23 24 25 25 26 25 20
8 8 8 8 9 9 5 5 7 9 9 8 9 9 9 10 10 11 11 11 12 11 11 12 13 13 14 15 15 15 15 16 16 16 16 15 14 14 15 14 15 16 15 17 18 18 18 19 19 20 20 19 19 17 16 17 17 16 15 14 14 14 12 9 12 14 14 13 14 13 14 14 14 13 19 22 24 25 24 22 22 25 26 24 23
8 8 7 7 9 8 5 3 7 8 8 8 7 8 9 9 10 10 11 11 11 12 11 12 13 13 14 15 14 15 15 16 16 16 15 15 15 14 14 14 15 15 17 18 18 19 19 19 19 20 20 19 18 16 16 16 16 16 14 14 14 14 11 14 15 15 13 14 15 14 13 14 13 13 18 20 22 22 20 19 17 18 19 22 26
8 8 7 7 11 7 5 5 4 6 8 7 7 8 8 8 9 10 10 11 11 11 11 12 13 13 14 14 14 14 15 15 15 15 15 15 15 14 13 15 15 14 15 16 17 18 18 19 19 19 18 18 17 16 16 16 16 15 14 14 14 13 10 12 15 12 13 14 14 12 12 15 12 12 17 19 21 20 17 19 20 20 23 24 25
8 8 7 8 9 7 5 4 2 7 7 7 8 7 7 8 8 9 10 10 11 11 11 12 13 14 14 14 14 14 15 15 15 15 15 15 14 14 13 14 15 15 16 17 16 17 18 19 20 19 18 18 16 15 15 15 15 14 13 13 12 11 11 15 13 12 13 15 14 13 13 15 14 15 20 20 20 20 19 22 21 21 21 22 22
8 8 7 8 8 7 6 4 2 4 6 7 6 7 7 8 8 9 9 9 10 11 11 12 13 13 14 14 14 14 15 15 15 15 14 14 14 14 13 13 15 14 15 16 17 17 17 18 18 17 17 17 16 15 15 15 14 14 14 14 13 11 12 14 13 14 14 14 13 12 13 12 12 18 19 21 21 20 21 21 22 22 22 23 23
9 8 8 7 7 8 7 6 2 2 5 4 7 6 6 6 7 8 9 9 9 10 11 12 13 13 13 13 14 14 14 15 15 15 14 14 13 13 13 13 14 14 14 14 14 14 15 16 17 16 17 16 16 16 15 15 15 15 14 14 13 11 9 12 13 14 14 14 13 14 14 13 14 21 22 22 23 23 22 23 23 24 25 24 25
9 8 8 8 8 8 8 6 6 4 2 2 2 6 7 6 6 7 9 9 9 10 11 11 12 13 13 14 13 14 14 14 14 14 14 14 13 13 13 14 14 15 15 15 15 15 15 16 16 16 16 16 16 16 15 15 15 15 15 14 13 12 11 10 9 11 11 10 11 14 13 12 18 19 22 22 22 23 23 23 24 24 24 25 25
8 8 8 9 8 8 7 7 6 4 5 3 2 2 5 6 5 8 9 9 9 10 11 11 12 13 13 13 13 14 14 14 14 14 14 14 14 13 13 14 14 15 16 15 15 15 15 16 16 17 17 17 16 16 15 15 15 15 14 13 11 13 12 11 11 11 10 11 11 12 12 12 20 21 20 21 22 22 24 23 23 23 24 24 25
7 6 7 7 9 8 8 8 6 4 6 6 3 3 1 5 5 7 9 9 9 10 10 11 12 13 13 13 13 13 13 14 14 14 14 13 14 14 13 14 15 15 15 15 15 16 16 17 17 17 17 17 16 16 16 15 15 14 13 12 12 12 12 13 11 11 11 10 10 10 10 11 18 22 22 22 23 22 24 23 23 24 24 25 26
4 6 5 6 6 7 7 8 7 7 7 5 6 4 3 1 6 7 7 8 7 8 8 10 11 10 10 11 11 11 12 13 13 14 14 14 13 11 13 14 15 15 15 16 16 16 17 17 17 17 17 16 16 16 15 15 14 13 12 10 10 11 14 13 11 10 11 10 11 9 11 14 20 20 21 21 21 21 22 24 24 25 26 26 26
4 5 6 5 5 7 7 7 8 8 8 7 6 4 4 3 5 8 7 8 8 7 7 9 10 10 11 11 11 11 10 11 11 11 11 11 11 12 14 14 15 16 16 16 16 17 17 17 17 17 17 16 16 16 15 15 13 13 11 10 9 8 11 11 11 11 11 11 9 9 9 15 18 20 20 20 20 20 20 21 23 24 25 26 25
4 5 6 5 4 4 5 6 7 8 7 6 6 6 5 5 2 6 9 8 8 8 9 9 10 10 11 12 12 11 10 10 11 10 10 10 10 11 12 14 16 16 16 16 17 17 17 17 17 17 17 16 16 15 15 14 13 12 9 10 9 10 12 10 14 11 10 10 10 9 12 15 18 19 20 20 20 20 19 20 20 24 24 26 26
4 4 4 6 4 6 5 4 5 6 7 7 6 6 5 3 4 4 7 9 9 8 10 10 9 10 11 12 12 10 10 9 9 10 10 9 10 11 12 14 16 16 16 16 16 16 16 16 17 17 17 17 15 16 14 14 13 11 10 11 10 11 10 11 11 10 10 9 10 10 16 16 19 21 21 22 22 22 22 24 24 24 26 27 28
7 6 3 6 6 7 7 7 5 6 6 6 5 6 5 2 5 6 6 8 9 9 8 8 9 8 9 10 8 9 8 8 9 10 9 10 10 11 12 14 16 16 15 16 16 17 17 17 18 18 16 13 10 8 8 10 11 11 11 11 9 11 11 11 11 10 10 10 10 11 16 18 19 20 22 22 23 24 25 24 25 25 26 29 28
8 7 5 6 5 5 8 8 7 6 6 5 4 5 7 6 3 4 5 7 8 8 8 9 9 9 9 8 7 6 8 9 8 8 8 10 10 11 12 13 15 14 16 16 16 16 16 15 14 13 10 7 7 5 6 5 6 9 10 9 9 11 11 12 10 9 9 8 8 14 17 18 19 23 22 24 23 25 25 26 26 27 28 28 27
10 8 7 5 6 7 6 8 9 7 7 5 5 5 6 6 6 6 6 6 8 8 7 8 7 8 8 8 4 6 6 7 12 16 12 9 9 11 13 13 13 13 15 12 14 14 15 14 12 8 6 6 6 6 6 6 6 6 7 8 8 9 10 10 9 9 9 11 9 17 19 21 20 22 22 24 24 24 23 24 27 28 28 28 27
8 9 7 7 7 7 7 5 6 8 8 6 6 6 6 6 7 7 6 6 6 7 7 7 6 8 9 7 6 6 6 8 9 9 8 9 9 9 9 8 8 9 9 9 8 8 8 6 5 6 6 6 6 6 6 6 6 6 7 7 8 9 9 9 9 9 9 10 12 16 18 21 22 23 23 24 24 23 25 25 28 27 27 26 26
9 10 11 10 11 9 7 6 7 7 9 7 7 6 6 6 6 7 8 6 7 7 8 7 7 7 7 3 4 7 8 8 8 8 8 9 9 9 7 7 8 8 8 8 8 7 6 5 6 6 6 6 7 6 7 6 6 7 7 7 8 8 8 9 9 9 9 9 12 18 18 18 21 23 24 25 23 23 25 27 27 26 24 24 26
8 9 8 9 11 10 7 5 6 6 8 8 7 6 7 6 5 6 7 8 8 8 8 8 8 8 5 7 7 5 6 8 9 8 8 8 8 8 8 7 8 7 8 7 7 6 6 6 6 6 7 7 7 7 7 8 7 8 7 7 8 8 8 8 9 9 9 10 13 21 19 19 22 21 23 22 23 22 23 23 24 25 24 24 26
7 9 9 9 8 10 9 7 6 6 6 6 7 8 7 5 4 5 7 7 7 7 7 8 8 9 7 7 7 6 7 8 8 9 8 8 7 7 7 7 7 7 7 7 7 6 6 6 7 7 7 7 8 7 7 8 8 8 8 8 8 8 8 8 9 9 9 9 11 19 19 20 21 21 22 21 22 22 21 21 22 25 24 25 26
10 11 9 8 9 8 9 9 8 8 7 8 8 7 7 7 7 5 6 5 8 8 8 8 7 8 9 7 8 8 7 8 9 8 8 7 7 6 7 7 6 6 6 6 6 6 6 6 6 7 6 6 7 7 7 8 7 7 8 8 8 8 8 8 9 9 9 9 9 15 21 19 21 22 21 20 21 21 20 21 21 23 23 25 24
11 12 10 8 8 9 8 9 9 8 7 9 8 8 8 9 8 8 6 4 6 6 8 8 7 8 8 9 8 8 6 7 7 6 8 7 7 7 6 5 5 4 4 4 5 6 6 6 6 6 7 7 7 7 7 8 8 7 7 7 7 8 7 7 8 8 8 8 9 11 23 21 21 22 21 21 22 21 20 19 20 21 24 23 23
11 12 11 9 8 9 9 9 8 7 5 7 7 8 9 10 9 7 6 5 5 6 7 7 7 6 6 8 9 9 9 6 7 8 9 6 8 7 6 4 4 4 5 5 3 5 6 6 6 6 6 7 7 7 7 8 7 7 7 7 7 7 7 7 7 7 8 7 8 9 13 23 22 21 22 23 22 21 20 21 21 21 21 21 22
12 13 10 10 9 10 10 9 9 7 7 8 7 7 7 10 10 9 8 5 4 4 5 5 7 8 6 5 7 6 3 8 8 8 8 9 8 7 6 6 5 5 5 6 6 5 4 5 5 6 6 7 8 7 7 8 7 7 7 8 7 7 7 7 7 7 7 7 7 8 9 11 21 24 22 22 21 21 20 20 20 20 20 21 22
9 11 10 10 11 10 10 10 9 8 8 9 8 7 8 8 9 10 9 7 7 3 3 3 5 5 5 8 6 6 7 8 9 10 8 9 7 8 6 6 7 7 7 8 8 7 6 6 7 6 6 7 8 8 7 8 7 7 7 8 7 7 7 6 6 7 7 7 7 7 7 9 11 18 22 22 21 21 20 20 20 19 20 21 21
9 9 11 11 9 6 6 6 7 8 7 7 8 7 8 8 9 9 8 8 7 6 4 4 4 3 4 7 8 8 4 5 8 9 10 9 7 8 7 7 7 8 7 7 8 7 7 7 7 7 6 7 8 8 8 8 7 6 7 7 7 7 6 7 7 7 7 7 6 6 7 7 7 8 9 19 21 20 21 21 20 20 20 20 20
8 9 12 11 11 7 6 6 6 7 7 7 8 8 7 8 9 8 9 8 6 6 7 6 5 6 7 6 7 7 9 7 5 9 9 9 8 7 7 7 8 8 8 8 8 8 7 8 7 8 7 6 8 8 8 8 7 7 7 7 7 7 7 7 7 7 7 7 7 7 7 7 7 6 7 7 13 19 21 22 22 22 21 20 19
12 10 10 10 11 9 8 7 7 8 7 8 7 8 8 8 8 6 4 3 4 4 7 7 7 7 7 6 6 6 6 8 4 5 6 7 9 9 9 9 10 8 8 8 8 8 6 7 5 6 8 7 8 8 7 8 7 8 7 7 7 7 7 7 7 7 6 6 6 7 6 7 6 6 6 7 7 11 21 22 23 23 22 20 19
11 11 11 11 11 10 9 9 9 9 8 8 7 7 8 8 8 3 3 4 7 8 7 7 6 6 6 7 7 8 8 7 7 8 6 5 7 8 10 12 9 10 9 8 7 7 8 7 6 4 5 9 8 10 8 7 7 8 8 7 7 7 6 6 6 6 5 6 6 6 7 7 6 7 6 6 6 6 13 20 21 21 20 19 19
12 12 11 11 11 10 9 8 7 8 7 7 6 6 6 6 6 6 6 4 4 5 5 5 5 5 5 4 3 5 7 8 10 9 9 7 8 10 11 11 10 9 9 9 8 7 7 7 7 5 5 8 8 9 9 8 6 7 7 7 7 7 6 6 6 6 6 6 6 7 6 6 6 6 7 7 7 7 6 9 13 16 18 18 19
11 13 12 11 9 9 8 9 8 8 7 7 7 8 8 7 7 7 6 5 3 2 2 3 3 5 5 4 2 3 5 7 6 9 11 10 10 11 11 9 10 9 9 9 9 8 7 7 8 8 6 5 8 7 8 8 8 8 8 8 7 7 6 6 6 6 6 6 6 6 5 6 6 7 7 7 6 6 6 5 5 5 8 18 18
11 12 13 11 11 10 9 8 9 9 8 8 8 8 8 8 9 6 6 5 3 3 2 2 2 3 3 5 4 3 4 4 5 7 8 7 7 7 9 11 10 10 9 9 9 9 11 10 7 11 10 8 7 7 8 9 10 10 9 8 8 7 7 6 7 6 5 5 5 5 5 5 6 6 6 6 6 5 5 5 5 5 4 9 16
12 12 13 12 12 11 10 11 9 9 8 8 9 9 10 10 10 8 8 5 4 3 3 2 2 2 3 3 4 4 2 3 5 6 8 8 7 7 10 9 9 10 10 10 10 10 9 9 8 7 12 10 6 6 7 8 12 10 8 8 8 7 7 7 7 6 5 4 4 4 4 5 5 6 5 5 6 6 5 6 5 5 5 4 7
13 13 14 13 13 12 12 11 10 10 10 9 9 10 10 10 9 8 7 5 4 4 4 3 3 2 3 3 3 4 5 4 5 7 8 10 9 8 9 11 10 9 7 7 7 7 10 9 10 8 3 10 8 9 9 9 6 9 10 8 7 6 6 6 6 6 5 4 4 4 4 5 5 5 5 5 6 6 6 5 5 5 5 5 7
12 13 13 13 13 12 11 11 10 10 10 10 10 9 9 8 9 9 10 4 3 2 2 3 3 3 3 2 2 4 4 5 6 7 8 9 10 12 11 10 11 11 10 10 9 10 8 9 10 11 9 6 7 8 10 5 8 8 7 9 6 5 3 4 4 5 4 4 4 5 5 5 5 4 4 4 5 5 5 5 5 6 6 7 6
11 12 13 14 11 11 11 12 11 10 9 10 10 10 9 4 3 3 3 3 4 3 3 2 2 3 3 2 1 3 4 6 6 6 7 8 9 11 12 12 11 9 9 11 10 8 7 8 10 12 12 12 8 8 9 3 9 11 8 4 7 5 6 4 5 3 3 4 4 4 4 4 4 4 4 5 5 4 4 4 6 6 6 6 6
12 12 13 13 10 13 12 12 10 11 9 10 11 8 6 6 4 5 4 5 4 3 2 2 3 3 3 3 3 1 2 4 5 6 7 9 8 9 11 11 11 11 9 9 11 11 11 10 13 12 12 12 11 8 7 5 9 7 3 7 5 4 5 8 8 4 5 4 4 4 3 4 4 4 4 4 4 4 4 5 5 6 6 6 5
12 11 12 12 11 10 11 11 9 9 9 11 10 6 8 7 6 6 6 5 5 6 7 7 6 5 6 4 4 2 2 3 3 6 6 7 9 11 11 11 11 11 10 8 8 9 10 11 12 11 11 9 10 10 8 6 8 7 3 3 1 2 7 10 8 5 4 3 4 4 4 4 4 4 4 4 4 4 4 4 5 5 5 5 5
11 10 10 11 11 10 11 11 9 8 9 10 10 7 8 8 8 7 6 6 5 4 3 3 5 5 4 5 4 3 2 3 3 3 4 6 8 9 10 10 10 8 11 9 10 11 10 13 12 10 10 9 9 10 10 9 2 2 1 1 2 2 10 12 6 9 6 3 4 5 4 4 4 5 4 4 4 4 4 4 4 4 5 4 4
10 10 10 10 11 11 11 11 9 9 9 10 11 10 9 8 9 9 7 7 7 6 7 5 3 3 4 4 3 3 2 1 2 3 4 4 7 8 8 9 10 10 10 10 11 10 9 9 11 11 9 8 10 9 9 8 9 7 4 3 1 3 10 4 7 8 8 9 7 4 4 4 4 4 4 4 4 4 4 4 4 4 4 4 4
10 10 10 10 10 10 11 11 10 9 9 12 9 10 8 8 8 9 8 7 7 6 6 5 5 4 5 3 3 3 2 1 2 2 3 4 6 7 8 8 9 9 8 9 10 12 13 13 11 10 9 8 8 7 8 8 8 5 6 3 3 5 5 2 7 4 5 8 6 7 6 4 3 4 3 4 4 4 4 4 4 3 3 3 3
9 9 10 10 10 10 11 11 11 9 8 11 9 10 9 7 8 9 12 9 5 5 6 6 5 5 6 5 3 4 3 3 2 2 4 3 6 6 7 9 10 10 9 9 11 12 12 11 13 12 9 9 7 7 8 6 7 5 6 5 5 5 4 3 3 4 5 5 8 9 8 9 7 5 4 4 4 4 3 3 3 3 3 3 3
8 10 10 10 10 10 11 12 11 9 8 10 11 10 9 8 8 8 10 9 10 7 6 5 5 6 6 5 5 4 4 4 3 3 3 4 4 4 6 7 8 8 9 8 10 11 11 11 10 9 9 10 8 6 6 7 6 6 6 5 5 7 6 5 6 5 5 5 7 7 7 7 6 7 5 5 5 4 3 3 3 3 2 3 3
Wind_Direction
125 128 123 99 117 95 60 97 121 121 122 132 118 112 107 106 103 100 102 101 102 101 100 95 92 85 80 77 72 70 68 67 67 66 65 64 64 63 67 68 69 77 79 73 70 73 74 73 69 65 64 61 59 58 57 57 57 59 61 60 62 67 69 63 58 69 70 66 61 59 58 57 56 55 53 49 45 42 41 44 51 52 55 52 52
142 135 139 123 108 115 65 110 119 124 114 114 115 109 108 104 106 106 104 104 104 106 103 98 91 86 82 78 74 71 69 67 68 68 67 66 65 64 65 70 75 79 81 78 76 75 74 72 70 67 64 61 58 58 57 57 58 61 63 62 60 60 55 52 51 55 79 79 74 65 59 57 56 55 54 52 50 47 44 46 45 50 53 51 51
130 134 134 123 115 115 106 127 128 114 126 118 102 104 112 110 109 108 105 104 104 103 101 95 87 82 79 75 71 69 68 67 68 68 69 68 66 67 68 72 79 85 84 84 83 80 77 77 76 72 67 64 61 59 59 58 58 61 61 60 58 55 48 42 40 45 53 84 81 74 66 59 57 56 54 53 53 52 49 50 48 50 51 50 50
136 132 137 120 120 75 139 135 131 126 127 121 121 116 113 112 113 112 109 105 105 102 101 94 86 81 77 74 71 69 69 69 69 69 70 69 69 72 74 79 84 83 84 85 84 80 80 81 78 73 70 66 64 62 60 60 65 63 58 58 55 49 42 35 28 29 59 66 68 67 63 58 56 55 56 56 56 55 54 52 52 53 54 52 49
137 137 136 146 147 126 114 125 136 138 126 123 115 117 116 113 110 112 112 112 109 110 103 99 92 86 81 77 74 72 73 73 73 73 73 72 72 75 79 82 82 83 88 86 89 96 91 84 81 76 71 67 65 64 62 63 65 64 58 52 45 37 29 26 36 35 73 71 63 61 62 61 58 53 57 57 56 56 56 56 56 56 55 53 49
142 140 143 144 140 132 75 143 136 126 126 122 123 125 122 118 113 113 113 107 106 107 104 101 94 86 80 77 75 74 74 74 75 75 74 73 71 76 80 80 85 88 89 90 83 76 79 84 83 80 76 74 70 67 64 65 63 60 52 46 38 31 26 19 39 48 74 74 71 65 63 65 59 54 53 57 58 57 57 57 57 56 54 53 50
144 141 140 149 144 123 98 150 127 124 123 121 120 121 122 116 113 113 112 113 116 111 104 99 91 84 80 77 76 75 74 74 74 74 75 74 71 73 79 83 86 87 90 91 91 91 90 84 80 80 78 76 75 71 66 64 64 57 52 43 35 27 23 29 44 50 56 59 65 63 62 62 63 62 55 55 57 60 61 60 59 57 56 55 54
144 141 146 138 130 118 124 156 133 131 128 122 121 122 121 123 121 118 117 116 113 108 106 99 93 88 84 80 78 77 76 76 76 76 77 77 73 74 80 82 87 89 92 95 94 88 83 82 82 82 80 77 75 73 67 66 67 57 48 39 31 22 18 44 65 56 53 61 65 69 63 63 64 63 60 59 59 60 61 62 61 60 59 58 56
154 152 148 141 113 109 128 166 141 132 128 121 120 123 122 122 122 122 125 122 117 117 112 104 99 94 88 83 82 82 81 82 81 81 81 81 76 73 80 84 85 87 94 93 92 93 87 83 84 83 80 74 73 70 67 70 65 57 49 39 27 18 2 35 70 81 70 64 61 55 63 62 62 63 62 63 63 63 62 62 61 60 60 59 59
155 152 150 149 132 112 115 168 139 132 125 121 116 120 123 122 123 122 118 120 121 121 114 109 104 97 90 87 86 86 86 85 85 85 85 82 82 80 81 85 87 87 85 80 81 85 88 86 78 77 77 76 74 71 69 68 63 58 51 38 27 15 11 56 58 57 69 71 72 68 63 64 66 65 64 64 64 65 66 64 65 66 65 63 62
157 154 153 134 121 110 114 152 141 129 133 125 128 128 122 122 122 124 124 125 126 122 117 111 106 96 89 87 85 84 85 85 86 87 86 86 86 85 87 84 89 92 86 89 91 87 86 83 82 79 78 79 76 72 69 65 62 55 45 36 23 19 24 51 70 68 65 64 69 69 78 72 69 64 66 67 65 67 68 71 66 63 63 62 62
162 154 150 108 109 90 90 151 159 144 139 143 135 136 130 130 126 128 130 128 128 124 120 114 108 100 93 89 85 85 85 85 86 87 88 90 91 90 88 93 93 88 84 81 84 86 86 87 85 85 84 83 79 74 70 65 60 53 43 27 16 11 57 64 65 62 62 61 58 59 56 54 55 60 64 66 65 62 63 68 66 64 63 62 64
166 161 146 134 128 91 74 68 151 146 146 150 143 139 139 138 137 138 133 133 127 127 123 116 109 104 98 94 91 90 90 91 92 91 91 90 92 95 96 94 90 96 99 97 91 89 89 89 88 90 90 86 80 75 70 64 58 50 39 27 19 7 55 64 70 70 65 62 62 57 56 63 64 66 69 68 68 68 66 64 62 60 61 60 58
166 163 147 146 123 104 82 78 71 154 146 148 154 147 141 141 147 140 133 131 130 128 123 119 115 109 103 100 99 98 97 98 98 98 97 95 94 94 96 96 98 92 90 89 88 94 94 94 97 95 91 84 80 75 69 63 59 53 41 32 21 7 59 74 73 72 69 69 63 61 63 63 64 64 66 67 66 67 69 69 67 65 65 63 62
167 167 146 141 140 142 96 89 86 70 65 131 139 157 152 150 151 143 134 133 134 133 127 124 120 114 110 105 101 101 102 102 103 102 101 100 97 96 95 99 100 102 101 98 97 97 100 100 100 98 91 85 80 75 70 64 59 53 44 29 18 17 43 71 67 71 71 71 65 62 59 57 62 63 63 65 65 64 65 67 67 67 67 66 64
166 164 164 151 157 147 153 108 88 72 80 63 54 149 158 158 143 145 135 132 139 135 131 130 126 121 114 110 108 107 106 105 104 105 104 104 104 102 103 102 102 100 99 100 101 100 102 102 100 96 89 86 82 77 72 66 59 52 41 32 22 32 40 62 66 62 61 66 61 61 62 61 60 62 62 63 65 66 64 63 66 68 66 65 65
160 168 174 157 160 161 161 165 122 120 99 86 59 34 167 149 130 135 139 134 138 139 137 134 130 127 120 114 109 106 106 107 107 106 106 106 107 107 108 108 107 106 104 102 98 97 96 97 96 91 89 87 84 78 73 68 60 50 40 30 27 32 51 65 69 70 68 64 68 60 56 57 56 57 57 58 59 61 65 63 64 66 66 64 63
131 150 148 164 169 167 170 162 159 178 159 132 101 77 31 120 131 133 127 127 140 141 138 136 130 122 107 104 106 106 107 107 107 108 107 106 105 106 109 109 107 103 101 98 96 95 94 94 94 92 90 86 82 78 72 68 61 49 38 22 29 41 58 65 72 69 68 66 68 66 64 64 62 61 60 59 62 63 62 63 64 67 69 66 64
138 133 128 127 172 186 180 174 179 188 178 182 174 106 61 16 145 135 136 136 131 127 119 121 122 119 111 105 101 97 94 96 95 98 96 98 100 103 106 106 107 105 104 102 100 98 98 97 96 93 90 86 81 77 72 66 60 51 35 27 28 61 78 69 65 62 63 67 59 62 70 68 67 66 67 66 65 64 63 63 68 67 69 68 66
131 165 153 134 154 187 190 188 193 185 190 180 180 169 84 43 30 144 141 136 127 119 120 120 121 120 113 112 109 107 103 96 101 98 95 98 101 105 106 109 110 108 107 105 102 101 100 100 98 94 88 83 78 72 68 63 54 45 31 38 21 50 57 61 67 62 58 51 47 48 38 64 75 76 76 75 72 71 73 73 71 71 69 71 66
164 136 171 173 177 167 172 178 194 193 187 181 183 173 107 111 148 91 135 127 120 120 121 118 124 121 128 129 135 129 124 122 119 111 104 97 101 106 110 112 111 109 106 104 103 101 100 99 97 94 90 84 76 69 61 57 50 41 37 49 41 68 61 61 60 54 53 54 54 54 53 59 67 71 72 70 70 68 69 69 70 72 71 69 68
183 187 141 184 190 188 172 173 178 192 202 188 188 187 143 138 211 169 163 140 131 134 144 148 144 147 141 156 153 143 143 139 119 119 111 109 98 99 104 109 110 108 107 105 104 102 101 102 102 102 101 101 99 87 74 61 50 46 46 53 57 77 76 70 59 49 43 54 57 56 64 68 72 77 75 75 75 75 74 74 73 72 71 70 67
199 191 183 178 181 187 199 185 176 181 179 190 197 195 173 166 214 182 171 169 153 159 164 157 172 164 168 181 165 159 151 134 140 112 106 91 97 101 102 104 106 105 106 105 104 105 104 103 103 101 101 107 90 87 79 74 68 58 59 61 67 78 72 73 63 55 47 32 54 56 63 73 76 77 77 75 75 77 76 75 74 70 67 67 67
198 193 177 176 178 186 206 204 182 168 178 183 178 189 186 184 189 190 187 182 173 179 173 178 174 175 183 195 154 160 157 115 95 106 111 116 98 87 91 92 95 100 105 103 102 101 106 108 116 132 125 91 86 81 77 68 62 58 57 61 66 68 67 65 61 54 47 35 27 55 61 67 73 76 77 76 74 74 73 72 68 66 64 64 65
199 183 184 179 190 190 188 174 189 191 194 178 183 176 191 195 196 194 192 191 174 188 181 187 175 188 194 219 166 144 139 130 135 138 140 132 130 125 122 125 123 122 124 118 122 128 126 128 132 109 92 90 86 81 78 75 66 61 59 61 64 66 67 65 62 56 46 34 16 35 56 65 72 77 78 77 74 72 73 70 70 66 66 66 66
195 197 199 197 197 196 187 181 181 198 204 194 198 176 190 199 211 207 197 194 195 200 197 183 185 193 205 249 190 152 156 141 154 157 145 145 147 147 145 139 139 137 138 134 142 142 135 124 112 100 91 88 81 74 69 71 70 63 59 58 65 67 66 67 65 63 51 38 17 21 42 66 70 69 69 68 68 68 66 67 68 68 67 67 66
187 199 182 198 195 192 180 174 185 191 204 216 212 152 200 202 208 223 215 194 198 201 203 189 191 196 199 195 212 163 141 155 163 164 157 159 160 156 149 146 151 152 152 149 148 142 128 116 102 97 96 92 87 81 76 74 76 74 67 62 64 68 68 68 69 65 56 44 28 12 39 51 59 66 67 68 66 66 66 67 68 69 67 66 66
185 192 191 190 184 186 180 182 188 194 195 200 210 206 196 176 186 226 231 220 205 200 197 203 194 200 189 209 207 177 169 167 172 169 171 171 165 154 150 152 160 161 155 149 147 133 119 110 108 105 104 97 95 91 88 84 80 78 73 68 66 67 69 70 69 65 59 51 38 20 37 53 58 61 65 68 70 68 67 65 68 67 67 66 65
196 198 193 189 178 183 181 188 190 200 212 210 218 219 222 192 187 211 223 226 229 211 205 196 197 197 191 195 183 193 183 175 173 179 179 175 161 152 155 159 161 154 151 147 140 126 115 114 117 116 109 101 96 94 93 88 84 81 80 79 74 74 74 75 71 69 67 62 48 30 29 54 62 60 59 67 67 67 68 67 68 69 67 66 63
198 194 190 194 185 183 186 194 199 199 208 222 220 226 223 219 210 215 221 198 225 229 204 203 197 195 194 200 194 198 184 179 167 174 182 170 165 165 156 150 144 130 133 131 113 118 121 120 116 116 113 103 94 92 96 90 84 83 80 82 80 80 79 79 80 81 79 71 62 46 36 39 65 67 66 63 65 64 66 66 67 67 66 66 67
191 194 195 193 187 184 192 201 205 209 208 213 224 233 227 226 221 215 214 209 207 224 214 207 194 200 191 195 204 206 187 173 167 165 176 157 175 168 144 118 98 86 81 91 102 118 123 124 124 120 116 108 100 97 95 94 89 85 83 80 78 80 78 77 83 87 89 84 81 69 48 43 44 57 61 61 64 65 67 67 67 68 70 69 67
198 198 195 192 184 185 186 195 201 196 210 219 226 234 238 238 232 218 211 205 209 208 205 202 200 203 187 193 202 212 222 179 163 172 161 167 176 153 136 129 110 97 101 114 117 100 96 94 89 92 99 104 104 99 95 95 93 90 87 82 77 77 76 78 78 78 78 85 89 86 77 58 48 45 53 66 68 67 67 67 67 66 66 66 65
201 201 196 193 192 191 198 201 203 204 204 217 223 223 226 228 231 226 220 205 213 211 224 200 209 188 181 204 214 203 199 194 168 170 163 173 156 144 134 123 119 118 110 117 108 94 92 100 96 101 101 103 103 101 96 93 96 94 90 86 82 76 78 79 78 75 75 74 74 77 82 81 69 54 50 51 62 67 68 68 66 65 65 64 63
193 194 196 194 189 186 189 197 202 209 213 221 221 223 222 224 223 222 224 215 206 213 218 230 221 201 184 199 201 210 200 238 184 161 168 169 153 145 139 134 130 130 125 126 120 119 121 125 123 116 113 112 108 106 105 102 101 99 93 87 85 82 79 74 68 67 69 69 67 68 70 73 76 74 61 51 51 61 67 67 66 65 63 62 61
188 193 197 193 192 181 177 190 190 204 204 217 222 227 226 223 217 220 221 224 212 209 211 209 202 201 201 207 206 201 200 203 196 161 166 161 154 142 137 134 137 133 132 137 132 132 140 137 139 129 125 107 105 104 104 104 107 105 97 93 90 88 79 74 69 68 68 67 67 65 65 66 72 77 73 70 50 48 54 57 60 60 58 61 61
193 191 189 190 197 189 181 193 186 200 206 210 217 221 225 226 221 209 203 247 228 208 230 218 217 208 201 198 200 198 190 190 159 146 143 160 157 151 149 141 140 134 136 137 139 137 144 134 130 134 122 110 111 105 101 103 100 97 93 91 90 84 79 73 71 72 71 72 70 69 66 64 68 75 80 75 68 50 50 51 51 51 56 61 60
194 189 188 188 196 191 184 195 195 196 203 200 203 214 220 218 211 116 179 243 225 212 212 214 208 211 205 193 195 194 185 189 168 158 145 154 147 154 160 154 143 145 146 147 143 144 145 135 126 121 120 121 112 109 104 100 98 92 89 89 87 85 82 83 86 85 74 72 71 69 68 67 67 65 62 62 61 56 46 49 49 46 46 54 60
197 195 191 189 192 190 186 192 194 192 193 186 195 208 218 217 205 195 200 203 233 216 201 189 196 187 196 198 199 189 192 190 180 171 167 164 158 157 151 149 147 146 148 151 150 148 146 132 118 109 113 116 117 116 110 106 104 95 90 89 87 84 84 84 83 78 71 68 63 62 63 62 60 58 58 56 51 48 47 47 50 48 43 45 50
193 195 191 190 189 189 182 185 189 185 185 178 186 201 208 203 197 191 192 201 210 200 142 170 169 181 190 190 181 190 190 197 170 171 172 167 166 159 148 146 154 153 146 150 149 147 140 132 130 110 85 86 114 112 114 114 105 95 91 84 81 80 80 81 80 76 74 72 69 64 62 60 57 52 53 53 53 50 43 43 36 41 41 41 45
189 191 189 188 188 183 180 180 186 184 186 180 184 196 200 196 193 193 199 198 184 166 164 159 158 175 159 179 178 177 188 179 169 158 153 145 134 137 136 150 151 153 151 153 153 153 148 133 131 126 116 97 96 117 122 119 99 92 87 80 77 81 82 82 79 76 77 71 72 75 74 75 70 64 61 58 55 51 48 39 39 33 34 38 44
189 188 187 187 187 183 180 183 181 180 183 187 190 192 193 198 204 199 204 187 169 158 169 162 171 160 153 158 165 171 167 179 139 139 143 141 132 134 146 150 153 157 158 157 149 142 134 136 126 127 128 117 112 131 134 129 116 102 99 94 88 77 77 77 76 74 75 86 89 88 89 85 79 75 67 64 60 54 49 43 37 32 33 32 36
191 189 190 186 185 184 185 183 181 184 188 195 192 201 202 199 194 195 193 173 159 176 178 169 172 148 154 161 170 162 173 172 144 136 147 150 143 142 146 153 151 149 137 127 131 135 137 144 134 111 87 126 137 155 158 140 115 133 136 128 101 83 69 72 74 77 79 80 86 84 80 75 78 82 84 76 65 59 53 45 38 37 35 36 34
190 191 188 184 186 187 187 184 180 181 188 194 201 202 199 201 203 204 198 145 119 88 115 130 143 160 157 157 155 164 153 153 152 148 152 156 159 151 156 157 159 153 146 144 147 152 153 156 154 140 136 122 128 171 171 188 135 139 129 119 138 126 96 86 80 73 79 86 90 85 79 75 73 78 82 81 77 67 57 48 45 40 37 34 35
192 189 190 188 187 190 186 186 180 181 187 193 202 204 199 160 62 100 135 122 147 115 93 88 119 146 167 154 169 167 170 161 160 157 154 159 164 164 156 161 161 161 154 152 155 148 142 153 151 145 141 139 161 179 202 190 153 144 160 173 152 136 134 164 143 105 90 92 102 106 98 93 93 92 88 82 78 75 69 58 50 44 39 36 35
194 191 189 188 189 192 187 186 177 180 184 188 197 192 118 117 119 84 92 91 84 143 142 170 179 177 159 173 187 169 143 160 159 165 167 166 166 168 161 158 157 161 154 152 158 162 162 162 163 156 164 153 159 171 181 200 170 201 132 130 145 191 191 145 139 132 148 123 97 99 101 114 108 101 97 91 92 87 83 68 59 50 43 39 33
195 196 191 191 187 187 184 182 172 175 183 189 186 152 171 162 156 161 170 174 172 180 193 186 175 182 189 168 134 152 125 122 130 167 174 173 173 171 166 158 158 161 163 154 151 152 162 165 173 167 165 170 156 157 165 204 196 209 333 339 24 201 145 150 155 153 150 97 114 105 122 122 118 110 103 101 99 94 85 78 65 58 48 38 34
196 188 190 191 187 183 182 179 176 177 179 188 173 175 170 176 175 183 181 186 176 189 180 159 169 176 165 151 149 140 118 146 122 148 155 170 174 168 167 165 159 157 160 153 160 170 172 172 169 174 173 164 162 164 171 176 175 263 169 289 16 311 135 149 184 122 145 152 165 143 125 129 120 115 113 109 106 102 89 80 71 70 56 43 35
186 185 186 185 184 182 178 181 181 175 182 188 183 187 186 180 183 184 189 192 191 176 176 159 130 132 138 142 140 143 106 112 133 109 126 128 167 167 166 164 165 169 160 170 169 172 173 174 174 174 169 173 173 170 172 174 180 183 177 186 247 115 146 171 144 164 147 151 161 126 121 140 139 124 123 119 107 97 93 78 71 64 56 51 38
184 182 183 181 181 182 182 184 185 179 182 188 179 186 189 185 185 193 195 197 192 178 157 141 144 124 145 129 134 125 111 64 69 88 89 130 171 165 165 166 162 171 178 170 170 175 177 174 174 180 180 178 180 174 170 175 183 169 152 160 151 143 164 179 154 159 142 141 148 163 159 145 141 142 124 115 105 98 95 95 83 64 65 51 43
180 179 177 178 182 184 185 186 188 184 177 180 179 189 191 186 190 193 201 193 159 115 133 143 137 143 161 161 141 138 146 157 140 82 136 129 175 168 176 181 177 175 184 182 173 175 179 178 178 181 178 174 178 184 178 170 183 143 165 153 159 152 147 144 177 150 132 149 157 172 165 165 169 161 153 146 136 125 119 112 96 82 68 50 36
176 179 181 183 183 185 186 190 191 187 180 182 183 191 191 198 200 199 199 185 180 151 138 139 142 155 164 160 163 161 157 161 135 137 165 153 174 183 190 188 185 174 181 174 174 175 176 177 176 175 174 173 181 168 167 169 172 150 167 168 170 175 174 170 169 163 156 146 134 150 156 182 163 147 159 137 142 130 117 99 95 91 69 51 36